Regional Weather Roundup
Issued by NWS

Home | Current Version | Previous Version | Graphics & Text | Print | Product List | Glossary On
Versions: 1 2 3 4 5 6 7 8 9 10 11 12 13 14 15 16 17 18 19 20 21 22 23 24 25 26 27 28 29 30 31 32 33 34 35 36 37 38 39 40 41 42 43 44 45 46 47 48 49 50
676
ASUS45 KBOU 230207
RWRCO

WEATHER ROUNDUP FOR COLORADO
NATIONAL WEATHER SERVICE DENVER/BOULDER CO
800 PM MDT FRI SEP 22 2017

NOTE: "FAIR" INDICATES FEW OR NO CLOUDS BELOW 12000 FEET WITH NO
SIGNIFICANT WEATHER AND/OR OBSTRUCTIONS TO VISIBILITY.

COZ001>005-013-030-031-230300-
...NORTHWEST COLORADO...

CITY           SKY/WX    TMP DP  RH WIND       PRES   REMARKS
CRAIG          FAIR      52  32  46 SE9       29.87R
HAYDEN         MOCLDY    54  37  52 SE9       29.90R
MEEKER         MOCLDY    61  30  31 SW16G35   29.88R
RABBIT EARS PA FAIR      41  32  70 S12G21    30.10S
STEAMBOAT SPGS FAIR      52  38  58 E5        29.91R
WALDEN         MOCLDY    46  41  81 SE8       30.01R
$$

COZ006>008-011-230300-
...WEST CENTRAL VALLEYS...

CITY           SKY/WX    TMP DP  RH WIND       PRES   REMARKS
GRAND JUNCTION FAIR      70  29  21 S7        29.75S
MONTROSE       CLOUDY    64  41  42 SW6       29.85R
EAGLE          MOCLDY    58  37  45 W8        29.92F
RIFLE          FAIR      62  42  47 N3        29.82R
DELTA          NOT AVBL
NUCLA          FAIR      66  28  24 SW10G25   29.87R
$$

COZ017>023-064>068-230300-
...SOUTHWEST COLORADO...

CITY           SKY/WX    TMP DP  RH WIND       PRES   REMARKS
DURANGO        FAIR      66  22  18 SW14      29.92S
CORTEZ         FAIR      64  30  27 S10       29.86R
PAGOSA SPRINGS MOCLDY    59  40  48 SE3       30.01R THUNDER
TELLURIDE      CLOUDY    56  28  35 S9        30.05S
WOLF CREEK PAS TSTM      34  34 100 S20G30    30.29R WCI  22
$$

COZ009-010-012-014-032>034-037-058>063-230300-
...CENTRAL COLORADO...

CITY           SKY/WX    TMP DP  RH WIND       PRES   REMARKS
ASPEN          FAIR      50  36  58 VRB5      29.95S
BUENA VISTA    FAIR      56  35  44 SE10      30.00S
COPPER MTN     MOCLDY    46  23  39 SE16G49   30.21R
BERTHOUD PASS  MOCLDY    37  30  75 S23G38    30.26R
COTTONWOOD PAS FAIR      55  32  41 SW10      30.12R
GUNNISON       FAIR      56  36  47 CALM      29.98S
KREMMLING      FAIR      59  36  41 W12       29.96S
LEADVILLE      FAIR      50  25  37 S20       30.08R
MONARCH PASS   FAIR      37  32  81 S13       30.33F
SALIDA         FAIR      64  33  31 S7        30.06F
SUNLIGHT       FAIR      36  32  87 SW12G21   30.13R
WILKERSON PASS FAIR      45  28  53 SW13G22   30.24S
$$

COZ069>075-230300-
...SAN LUIS VALLEY/SANGRE DE CRISTO MOUNTAINS...

CITY           SKY/WX    TMP DP  RH WIND       PRES   REMARKS
ALAMOSA        CLOUDY    54  48  80 NW6       30.02R
DEL NORTE      HVY RAIN  53  43  69 W15G31    30.06R
LA VETA PASS   LGT RAIN  50  34  53 S18G29    30.29R
SAGUACHE       MOCLDY    55  39  54 SE6       30.05R
$$

COZ035-036-038>040-230300-
...NORTHERN COLORADO FRONT RANGE...

CITY           SKY/WX    TMP DP  RH WIND       PRES   REMARKS
DENVER INTL AP MOCLDY    61  40  45 NW12      29.89R
DMNS CITY PARK   N/A     60  40  49 N8        29.91R
AURORA         MOCLDY    58  42  55 NW13      29.91R
FRONT RANGE AP MOCLDY    61  43  51 NW9       29.89R
ERIE MUNI ARPT FAIR      59  42  52 N6        29.94S
BOULDER MUN AP FAIR      61  39  44 NW3       29.90R
CENTENNIAL     MOCLDY    59  42  53 NW12      29.92R
BROOMFIELD     MOCLDY    61  41  48 NW9       29.92R
FORT COLLINS   FAIR      60  39  45 N9        29.91R
LONGMONT       NOT AVBL
$$

COZ041-046-047-076>085-087-088-230300-
...PIKES PEAK/PALMER DIVIDE AND SOUTHERN FOOTHILLS...

CITY           SKY/WX    TMP DP  RH WIND       PRES   REMARKS
COLO. SPRINGS  MOCLDY    72  34  24 W12       29.91R
A. F. ACADEMY  CLOUDY    71  31  22 CALM      29.92R
SCHRIEVER AFB  MOCLDY    68  29  23 SW10      29.91R
CHEYENNE MTN   FAIR      68  31  25 NW14G29   29.90R
ELLICOTT         N/A    N/A N/A N/A SW12      29.88R
FALCON         FAIR      65  28  24 SW10G16   29.96R
FORT CARSON    FAIR      73  34  24 SW9       29.86R
LIMON            N/A    N/A N/A N/A MISG      29.84R
MONUMENT HILL  FAIR      55  41  58 NW9       30.00R
CANON CITY     PTCLDY    73  39  29 SW15      29.86R
WALSENBURG     FAIR      70  37  30 W16G25    29.89R
TRINIDAD       FAIR      75  36  24 S12       29.89R
$$

COZ042>045-048>051-090-091-230300-
...NORTHEAST COLORADO...

CITY           SKY/WX    TMP DP  RH WIND       PRES   REMARKS
GREELEY ARPT   FAIR      61  41  47 NW10      29.88R
AKRON          FAIR      72  39  30 NE15G21   29.80R
BURLINGTON     FAIR      80  55  42 S17       29.80R
WRAY           FAIR      77  41  27 SE13      29.74R
YUMA           FAIR      64  34  32 SE6       29.76R
STERLING       FAIR      64  46  52 NE13G21   29.79R
HOLYOKE        FAIR      68  43  40 NE9       29.80R
FORT MORGAN    FAIR      64  42  43 N18       29.83R
$$

COZ086-089-092>099-230300-
...SOUTHEAST COLORADO...

CITY           SKY/WX    TMP DP  RH WIND       PRES   REMARKS
PUEBLO         FAIR      75  34  22 NW12      29.79R
LA JUNTA       FAIR      76  37  24 S7        29.77R
LAMAR          FAIR      80  59  48 S31G38    29.76R
SPRINGFIELD      N/A     70  61  73 S23       29.88R
$$




USA.gov is the U.S. government's official web portal to all federal, state and local government web resources and services.